TimeMDT,TemperatureF,Dew PointF,Humidity,Sea Level PressureIn,VisibilityMPH,Wind Direction,Wind SpeedMPH,Gust SpeedMPH,PrecipitationIn,Events,Conditions,WindDirDegrees,DateUTC
12:53 AM,33.1,6.1,32,29.96,10.0,ENE,5.8,-,N/A,,Clear,60,2013-05-04 06:53:00
1:53 AM,33.1,7.0,34,29.94,10.0,Calm,Calm,-,N/A,,Clear,0,2013-05-04 07:53:00
2:53 AM,30.0,8.1,40,29.94,10.0,Calm,Calm,-,N/A,,Clear,0,2013-05-04 08:53:00
3:53 AM,26.1,5.0,41,29.95,10.0,NE,4.6,-,N/A,,Clear,40,2013-05-04 09:53:00
4:53 AM,30.0,10.0,43,29.94,10.0,NNE,4.6,-,N/A,,Clear,20,2013-05-04 10:53:00
5:53 AM,26.1,8.1,47,29.96,10.0,NNE,4.6,-,N/A,,Clear,20,2013-05-04 11:53:00
6:53 AM,30.9,10.9,43,29.96,10.0,North,4.6,-,N/A,,Clear,10,2013-05-04 12:53:00
7:53 AM,37.0,14.0,39,29.96,10.0,East,3.5,-,N/A,,Clear,100,2013-05-04 13:53:00
8:53 AM,48.0,15.1,27,29.93,10.0,Calm,Calm,-,N/A,,Clear,0,2013-05-04 14:53:00
9:53 AM,54.0,12.9,20,29.92,10.0,Variable,5.8,-,N/A,,Clear,0,2013-05-04 15:53:00
10:53 AM,57.9,12.0,16,29.93,10.0,East,8.1,-,N/A,,Clear,80,2013-05-04 16:53:00
11:53 AM,62.1,10.0,13,29.93,10.0,Variable,3.5,-,N/A,,Clear,0,2013-05-04 17:53:00
12:53 PM,64.0,9.0,12,29.90,10.0,Calm,Calm,-,N/A,,Clear,0,2013-05-04 18:53:00
1:53 PM,66.0,8.1,10,29.86,10.0,SSW,12.7,18.4,N/A,,Clear,200,2013-05-04 19:53:00
2:53 PM,68.0,7.0,9,29.86,10.0,SSW,8.1,26.5,N/A,,Clear,210,2013-05-04 20:53:00
3:53 PM,69.1,5.0,8,29.85,10.0,Variable,6.9,-,N/A,,Clear,0,2013-05-04 21:53:00
4:53 PM,70.0,5.0,8,29.82,10.0,SSW,13.8,19.6,N/A,,Clear,200,2013-05-04 22:53:00
5:53 PM,66.9,6.1,9,29.84,10.0,SSW,11.5,-,N/A,,Clear,200,2013-05-04 23:53:00
6:53 PM,66.9,8.1,10,29.82,10.0,SW,9.2,-,N/A,,Clear,230,2013-05-05 00:53:00
7:53 PM,64.9,7.0,10,29.81,10.0,SW,3.5,-,N/A,,Clear,220,2013-05-05 01:53:00
8:53 PM,57.9,8.1,14,29.81,10.0,ESE,3.5,-,N/A,,Clear,120,2013-05-05 02:53:00
9:53 PM,54.0,12.0,19,29.83,10.0,East,3.5,-,N/A,,Clear,80,2013-05-05 03:53:00
10:53 PM,57.0,12.0,17,29.81,10.0,Variable,6.9,-,N/A,,Clear,0,2013-05-05 04:53:00
11:45 PM,60.8,8.6,13,30.01,10.0,SSE,15.0,29.9,N/A,,Scattered Clouds,160,2013-05-05 05:45:00
11:53 PM,60.1,9.0,13,29.80,10.0,South,19.6,26.5,N/A,,Scattered Clouds,180,2013-05-05 05:53:00